Weather History for KRSL - December, 2013

Change the Weather History Date:

Sunday, December 29, 2013

  Actual Average Record
Temperature  
Mean Temperature 14 °F -  
Max Temperature 21 °F 36 °F 73 °F (1999)
Min Temperature 6 °F 17 °F -11 °F (1983)
Degree Days  
Heating Degree Days 52    
Moisture  
Dew Point 2 °F    
Average Humidity 57    
Maximum Humidity 70    
Minimum Humidity 38    
Precipitation  
Precipitation 0.00 in - - ()
Sea Level Pressure  
Sea Level Pressure 30.33 in    
Wind  
Wind Speed 21 mph (North)    
Max Wind Speed 28 mph    
Max Gust Speed 37 mph    
Visibility 10 miles    
Events      
Averages and records for this station are not official NWS values.
T = Trace of Precipitation, MM = Missing Value Source: NWS Daily Summary

Daily Weather History Graph

Daily Weather History Graph

Search for Another Location

Airport or City:

Trip Planner

Search our weather history database for the weather conditions in past years. The results will help you decide how hot, cold, wet, or windy it might be!

Date:

Astronomy

Dec. 29, 2013 Rise Set
Actual Time 7:53 AM CST 5:21 PM CST
Civil Twilight 7:23 AM CST 5:51 PM CST
Nautical Twilight 6:49 AM CST 6:25 PM CST
Astronomical Twilight 6:17 AM CST 6:57 PM CST
Moon 4:39 AM CST (12/29) 3:00 PM CST (12/29)
Length of Visible Light 10h 28m
Length of Day
9h 28m
Waning Crescent, 11% of the Moon is Illuminated
Dec 29
Waning Crescent
Jan 1
New
Jan 7
First Quarter
Jan 15
Full
Jan 23
Last Quarter

Hourly Weather History & Observations

Time (CST) Temp. Windchill Dew Point Humidity Pressure Visibility Wind Dir Wind Speed Gust Speed Precip Events Conditions
12:46 AM 21.9 °F 5.8 °F 10.9 °F 63% 30.14 in 10.0 mi North 23.0 mph 34.5 mph N/A   Overcast
12:53 AM 21.0 °F 4.3 °F 10.9 °F 65% 30.18 in 10.0 mi North 24.2 mph 33.4 mph N/A   Mostly Cloudy
1:40 AM 18.0 °F -0.2 °F 7.0 °F 62% 30.17 in 10.0 mi North 25.3 mph 34.5 mph N/A   Mostly Cloudy
1:53 AM 18.0 °F 0.6 °F 7.0 °F 62% 30.22 in 10.0 mi North 23.0 mph 34.5 mph N/A   Overcast
2:53 AM 16.0 °F -3.5 °F 5.0 °F 62% 30.26 in 10.0 mi North 27.6 mph 35.7 mph N/A   Overcast
3:50 AM 15.8 °F -2.7 °F 5.0 °F 62% 30.23 in 10.0 mi North 24.2 mph 33.4 mph N/A   Overcast
3:53 AM 16.0 °F -2.8 °F 5.0 °F 62% 30.28 in 10.0 mi North 25.3 mph 33.4 mph N/A   Overcast
4:51 AM 15.8 °F -0.6 °F 3.2 °F 58% 30.24 in 10.0 mi North 18.4 mph 29.9 mph N/A   Mostly Cloudy
4:53 AM 15.1 °F -4.7 °F 3.9 °F 61% 30.30 in 10.0 mi North 27.6 mph 33.4 mph N/A   Mostly Cloudy
5:19 AM 15.1 °F -2.9 °F 3.9 °F 61% 30.25 in 10.0 mi North 21.9 mph 32.2 mph N/A   Scattered Clouds
5:34 AM 16.0 °F -3.5 °F 3.9 °F 59% 30.25 in 10.0 mi North 27.6 mph 36.8 mph N/A   Mostly Cloudy
5:53 AM 15.1 °F -3.3 °F 3.0 °F 59% 30.33 in 10.0 mi North 23.0 mph 34.5 mph N/A   Overcast
6:32 AM 15.1 °F -2.9 °F 3.0 °F 59% 30.29 in 10.0 mi NNW 21.9 mph 31.1 mph N/A   Scattered Clouds
6:53 AM 14.0 °F -5.8 °F 1.0 °F 56% 30.38 in 10.0 mi North 26.5 mph 35.7 mph N/A   Clear
7:53 AM 12.9 °F -6.5 °F 1.0 °F 59% 30.42 in 10.0 mi North 24.2 mph 34.5 mph N/A   Mostly Cloudy
8:53 AM 12.9 °F -5.3 °F 1.0 °F 59% 30.42 in 10.0 mi NNW 20.7 mph - N/A   Scattered Clouds
9:53 AM 12.0 °F -6.5 °F -0.0 °F 59% 30.45 in 10.0 mi North 20.7 mph - N/A   Partly Cloudy
10:53 AM 12.9 °F -5.3 °F -0.9 °F 54% 30.48 in 10.0 mi North 20.7 mph 27.6 mph N/A   Scattered Clouds
11:53 AM 17.1 °F 0.1 °F -2.0 °F 43% 30.45 in 10.0 mi North 20.7 mph - N/A   Clear
12:53 PM 19.0 °F 3.6 °F -0.0 °F 43% 30.43 in 10.0 mi NNW 18.4 mph 24.2 mph N/A   Clear
1:53 PM 19.0 °F 4.5 °F -0.0 °F 43% 30.41 in 10.0 mi NNW 16.1 mph - N/A   Clear
2:53 PM 21.9 °F 9.8 °F -0.0 °F 38% 30.39 in 10.0 mi North 12.7 mph - N/A   Clear
3:53 PM 21.0 °F 9.3 °F -0.0 °F 40% 30.40 in 10.0 mi North 11.5 mph - N/A   Clear
4:53 PM 19.0 °F 10.0 °F -0.9 °F 42% 30.40 in 10.0 mi North 6.9 mph - N/A   Clear
5:53 PM 15.1 °F 9.4 °F -2.0 °F 47% 30.39 in 10.0 mi NNW 3.5 mph - N/A   Clear
6:53 PM 15.1 °F - -0.9 °F 49% 30.37 in 10.0 mi Calm Calm - N/A   Clear
7:53 PM 12.0 °F 2.7 °F -2.0 °F 53% 30.38 in 10.0 mi South 5.8 mph - N/A   Clear
8:53 PM 7.0 °F -5.7 °F -2.9 °F 64% 30.36 in 10.0 mi SSE 8.1 mph - N/A   Clear
9:53 PM 6.1 °F -5.6 °F -2.0 °F 69% 30.33 in 10.0 mi SSE 6.9 mph - N/A   Clear
10:53 PM 7.0 °F -6.6 °F -0.9 °F 70% 30.32 in 10.0 mi South 9.2 mph - N/A   Clear
11:53 PM 9.0 °F -4.2 °F 1.0 °F 70% 30.30 in 10.0 mi South 9.2 mph - N/A   Clear